Location: *
(32.8140°S, 174.6161°E)
Time: 18:39:36
(UTC+00:00)

ASTEX 1 - Pass Details

Date: 10 December 2019
Orbit: 719 x 744 km, 92.7° (Epoch: 28 January)

Event Time Altitude Azimuth Distance (km) Brightness Sun altitude
Rises 16:22:02 0° 179° (S) 3,189 7.3 -8.8°
Reaches altitude 10° 16:24:21 10° 181° (S) 2,263 6.4 -8.4°
Maximum altitude 16:29:18 64° 262° (W) 826 3.5 -7.5°
Drops below altitude 10° 16:34:14 10° 342° (NNW) 2,249 5.5 -6.7°
Sets 16:36:32 0° 345° (NNW) 3,167 6.2 -6.3°
